,,,PA_Meas_PMT16A,,PR_Meas_QMR101_102,,RH_Meas_QMH101,,SR_Meas_QMS101,,TA_Meas_QMH101,,GenWind,,GenWind,
date,time,status,PA,status,PR,status,RH,status,SR,status,TA,status,DirAvg,status,SpdAvg,
2011-09-24, 00:00:04,VALID,1001.67,VALID,0,VALID,93.1195,VALID,0,VALID,24.5209,VALID,233,VALID,1.6082,
2011-09-24, 00:01:04,VALID,1001.65,VALID,0,VALID,93.089,VALID,0,VALID,24.4995,VALID,215,VALID,1.57227,
2011-09-24, 00:02:04,VALID,1001.62,VALID,0,VALID,93.0737,VALID,0,VALID,24.5599,VALID,215,VALID,1.6332,
2011-09-24, 00:03:04,VALID,1001.64,VALID,0,VALID,93.0203,VALID,0,VALID,24.5775,VALID,215,VALID,1.20586,
2011-09-24, 00:04:04,VALID,1001.67,VALID,0,VALID,92.9974,VALID,0,VALID,24.5775,VALID,215,VALID,1.03398,
2011-09-24, 00:05:04,VALID,1001.7,VALID,0,VALID,92.9288,VALID,0,VALID,24.5971,VALID,260,VALID,0.955469,
2011-09-24, 00:06:04,VALID,1001.68,VALID,0,VALID,92.8448,VALID,0,VALID,24.6184,VALID,262,VALID,0.985156,
2011-09-24, 00:07:04,VALID,1001.69,VALID,0,VALID,92.8143,VALID,0,VALID,24.5971,VALID,268,VALID,0.974219,
2011-09-24, 00:08:04,VALID,1001.69,VALID,0,VALID,92.7457,VALID,0,VALID,24.6166,VALID,268,VALID,0.677344,
2011-09-24, 00:09:04,VALID,1001.68,VALID,0,VALID,92.7228,VALID,0,VALID,24.6361,VALID,268,VALID,0.178125,
2011-09-24, 00:10:04,VALID,1001.68,VALID,0,VALID,92.7228,VALID,0,VALID,24.5971,VALID,268,VALID,0.172656,
2011-09-24, 00:11:04,VALID,1001.66,VALID,0,VALID,92.7457,VALID,0,VALID,24.558,VALID,268,VALID,0.546094,
2011-09-24, 00:12:04,VALID,1001.64,VALID,0,VALID,92.7609,VALID,0,VALID,24.5794,VALID,268,VALID,0.355469,
2011-09-24, 00:13:04,VALID,1001.6,VALID,0,VALID,92.7838,VALID,0,VALID,24.5599,VALID,268,VALID,0.380469,
2011-09-24, 00:14:04,VALID,1001.61,VALID,0,VALID,92.822,VALID,0,VALID,24.5385,VALID,268,VALID,0.710547,
2011-09-24, 00:15:04,VALID,1001.58,VALID,0,VALID,92.7991,VALID,0,VALID,24.519,VALID,268,VALID,0.653906,
2011-09-24, 00:16:04,VALID,1001.58,VALID,0,VALID,92.7609,VALID,0,VALID,24.519,VALID,268,VALID,0.389453,
2011-09-24, 00:17:04,VALID,1001.56,VALID,0,VALID,92.6999,VALID,0,VALID,24.4995,VALID,268,VALID,0.74375,
2011-09-24, 00:18:04,VALID,1001.56,VALID,0,VALID,92.6465,VALID,0,VALID,24.519,VALID,208,VALID,0.799219,
2011-09-24, 00:19:04,VALID,1001.55,VALID,0,VALID,92.616,VALID,0,VALID,24.5385,VALID,207,VALID,0.928906,
2011-09-24, 00:20:04,VALID,1001.56,VALID,0,VALID,92.5626,VALID,0,VALID,24.558,VALID,195,VALID,1.04766,
2011-09-24, 00:21:04,VALID,1001.58,VALID,0,VALID,92.532,VALID,0,VALID,24.558,VALID,176,VALID,0.892578,
2011-09-24, 00:22:04,VALID,1001.58,VALID,0,VALID,92.5244,VALID,0,VALID,24.6166,VALID,176,VALID,0.762109,
2011-09-24, 00:23:04,VALID,1001.59,VALID,0,VALID,92.5626,VALID,0,VALID,24.6361,VALID,183,VALID,1.0332,
2011-09-24, 00:24:04,VALID,1001.6,VALID,0,VALID,92.5473,VALID,0,VALID,24.6556,VALID,185,VALID,0.714844,
2011-09-24, 00:25:04,VALID,1001.62,VALID,0,VALID,92.5702,VALID,0,VALID,24.6556,VALID,185,VALID,0.425,
2011-09-24, 00:26:04,VALID,1001.62,VALID,0,VALID,92.6236,VALID,0,VALID,24.6556,VALID,185,VALID,0.291797,
2011-09-24, 00:27:04,VALID,1001.64,VALID,0,VALID,92.616,VALID,0,VALID,24.6556,VALID,152,VALID,0.785156,
2011-09-24, 00:28:04,VALID,1001.69,VALID,0,VALID,92.6083,VALID,0,VALID,24.6751,VALID,143,VALID,0.896875,
2011-09-24, 00:29:04,VALID,1001.73,VALID,0,VALID,92.6083,VALID,0,VALID,24.6751,VALID,143,VALID,0.717578,
2011-09-24, 00:30:04,VALID,1001.76,VALID,0,VALID,92.6083,VALID,0,VALID,24.6751,VALID,143,VALID,0.550781,
2011-09-24, 00:31:04,VALID,1001.77,VALID,0,VALID,92.5702,VALID,0,VALID,24.6361,VALID,143,VALID,0.370313,
2011-09-24, 00:32:04,VALID,1001.75,VALID,0,VALID,92.5931,VALID,0,VALID,24.6361,VALID,143,VALID,0.0195313,
2011-09-24, 00:33:04,VALID,1001.76,VALID,0,VALID,92.6465,VALID,0.112286,VALID,24.6361,VALID,143,VALID,0.619141,
2011-09-24, 00:34:04,VALID,1001.74,VALID,0,VALID,92.6846,VALID,0,VALID,24.6184,VALID,143,VALID,0.563281,
2011-09-24, 00:35:04,VALID,1001.74,VALID,0,VALID,92.7914,VALID,0,VALID,24.6166,VALID,143,VALID,0.670703,
2011-09-24, 00:36:04,VALID,1001.73,VALID,0,VALID,92.822,VALID,0,VALID,24.6166,VALID,143,VALID,0.584766,
2011-09-24, 00:37:04,VALID,1001.78,VALID,0,VALID,92.8754,VALID,0,VALID,24.6166,VALID,143,VALID,0.563281,
2011-09-24, 00:38:04,VALID,1001.8,VALID,0,VALID,92.9135,VALID,0,VALID,24.6166,VALID,260,VALID,1.09258,
2011-09-24, 00:39:04,VALID,1001.87,VALID,0,VALID,92.9745,VALID,0.112286,VALID,24.6166,VALID,248,VALID,1.46914,
2011-09-24, 00:40:04,VALID,1001.9,VALID,0,VALID,93.0356,VALID,0,VALID,24.6166,VALID,261,VALID,1.43867,
2011-09-24, 00:41:04,VALID,1001.9,VALID,0,VALID,93.0508,VALID,0,VALID,24.5775,VALID,257,VALID,2.32969,
2011-09-24, 00:42:04,VALID,1001.88,VALID,0,VALID,93.0127,VALID,0,VALID,24.558,VALID,243,VALID,1.92695,
2011-09-24, 00:43:04,VALID,1001.87,VALID,0,VALID,92.883,VALID,0,VALID,24.558,VALID,292,VALID,1.73281,
2011-09-24, 00:44:04,VALID,1001.88,VALID,0,VALID,92.677,VALID,0,VALID,24.558,VALID,259,VALID,1.88867,
2011-09-24, 00:45:04,VALID,1001.78,VALID,0,VALID,92.3947,VALID,0,VALID,24.519,VALID,226,VALID,2.52266,
2011-09-24, 00:46:04,VALID,1001.83,VALID,0,VALID,92.0514,VALID,0,VALID,24.519,VALID,247,VALID,1.94023,
2011-09-24, 00:47:04,VALID,1001.83,VALID,0,VALID,91.6394,VALID,0,VALID,24.5013,VALID,242,VALID,1.14023,
2011-09-24, 00:48:04,VALID,1001.8,VALID,0,VALID,91.4105,VALID,0,VALID,24.4604,VALID,270,VALID,1.71328,
2011-09-24, 00:49:04,VALID,1001.79,VALID,0,VALID,91.3952,VALID,0,VALID,24.4604,VALID,251,VALID,1.14961,
2011-09-24, 00:50:04,VALID,1001.82,VALID,0,VALID,91.4791,VALID,0,VALID,24.4214,VALID,277,VALID,1.81055,
2011-09-24, 00:51:04,VALID,1001.8,VALID,0,VALID,91.5402,VALID,0,VALID,24.4019,VALID,261,VALID,1.39219,
2011-09-24, 00:52:05,VALID,1001.79,VALID,0,VALID,91.6165,VALID,0,VALID,24.3824,VALID,252,VALID,1.44648,
2011-09-24, 00:53:05,VALID,1001.8,VALID,0,VALID,91.6775,VALID,0,VALID,24.3629,VALID,287,VALID,1.44258,
2011-09-24, 00:54:05,VALID,1001.78,VALID,0,VALID,91.7309,VALID,0,VALID,24.3433,VALID,287,VALID,2.87812,
2011-09-24, 00:55:05,VALID,1001.75,VALID,0,VALID,91.7538,VALID,0.112286,VALID,24.3433,VALID,285,VALID,1.34141,
2011-09-24, 00:56:05,VALID,1001.74,VALID,0,VALID,91.8148,VALID,0,VALID,24.3062,VALID,307,VALID,2.36875,
2011-09-24, 00:57:05,VALID,1001.72,VALID,0,VALID,91.853,VALID,0,VALID,24.2848,VALID,280,VALID,1.93359,
2011-09-24, 00:58:05,VALID,1001.73,VALID,0,VALID,91.9445,VALID,0,VALID,24.2653,VALID,302,VALID,1.21797,
2011-09-24, 00:59:05,VALID,1001.76,VALID,0,VALID,91.998,VALID,0.112286,VALID,24.2458,VALID,308,VALID,0.9375,
2011-09-24, 01:00:05,VALID,1001.73,VALID,0,VALID,92.0895,VALID,0,VALID,24.2263,VALID,318,VALID,2.02969,
2011-09-24, 01:01:05,VALID,1001.73,VALID,0,VALID,92.1658,VALID,0,VALID,24.2067,VALID,305,VALID,1.37188,
2011-09-24, 01:02:05,VALID,1001.71,VALID,0,VALID,92.2192,VALID,0,VALID,24.2281,VALID,286,VALID,1.44336,
2011-09-24, 01:03:05,VALID,1001.67,VALID,0,VALID,92.2879,VALID,0,VALID,24.2086,VALID,347,VALID,1.78711,
2011-09-24, 01:04:05,VALID,1001.63,VALID,0,VALID,92.3337,VALID,0.112286,VALID,24.1872,VALID,314,VALID,1.2332,
2011-09-24, 01:05:05,VALID,1001.59,VALID,0,VALID,92.3489,VALID,0,VALID,24.1696,VALID,300,VALID,1.20352,
2011-09-24, 01:06:05,VALID,1001.62,VALID,0,VALID,92.4176,VALID,0,VALID,24.1482,VALID,294,VALID,1.38633,
2011-09-24, 01:07:05,VALID,1001.6,VALID,0,VALID,92.4634,VALID,0,VALID,24.15,VALID,296,VALID,1.15898,
2011-09-24, 01:08:05,VALID,1001.56,VALID,0.5,VALID,92.5091,VALID,0.112286,VALID,24.1092,VALID,307,VALID,1.3375,
2011-09-24, 01:09:05,VALID,1001.55,VALID,0,VALID,92.5397,VALID,0,VALID,24.1287,VALID,283,VALID,1.43477,
2011-09-24, 01:10:05,VALID,1001.52,VALID,0,VALID,92.6007,VALID,0.112286,VALID,24.1092,VALID,273,VALID,1.38203,
2011-09-24, 01:11:05,VALID,1001.47,VALID,0,VALID,92.6312,VALID,0,VALID,24.1092,VALID,271,VALID,2.23398,
2011-09-24, 01:12:05,VALID,1001.45,VALID,0,VALID,92.677,VALID,0.112286,VALID,24.1287,VALID,238,VALID,1.20625,
2011-09-24, 01:13:05,VALID,1001.39,VALID,0,VALID,92.7151,VALID,0,VALID,24.1092,VALID,249,VALID,1.2793,
2011-09-24, 01:14:05,VALID,1001.38,VALID,0,VALID,92.7457,VALID,0,VALID,24.1092,VALID,273,VALID,0.692969,
2011-09-24, 01:15:05,VALID,1001.36,VALID,0,VALID,92.7914,VALID,0.112286,VALID,24.1092,VALID,313,VALID,0.996484,
2011-09-24, 01:16:05,VALID,1001.37,VALID,0,VALID,92.8143,VALID,0.112286,VALID,24.1305,VALID,294,VALID,0.970312,
2011-09-24, 01:17:05,VALID,1001.32,VALID,0,VALID,92.8448,VALID,0,VALID,24.0897,VALID,251,VALID,0.809766,
2011-09-24, 01:18:05,VALID,1001.28,VALID,0,VALID,92.8601,VALID,0,VALID,24.111,VALID,316,VALID,1.07187,
2011-09-24, 01:19:05,VALID,1001.3,VALID,0,VALID,92.8754,VALID,0.112286,VALID,24.111,VALID,268,VALID,1.18477,
2011-09-24, 01:20:05,VALID,1001.27,VALID,0,VALID,92.8754,VALID,0,VALID,24.0897,VALID,279,VALID,1.14961,
2011-09-24, 01:21:05,VALID,1001.24,VALID,0,VALID,92.883,VALID,0,VALID,24.1305,VALID,227,VALID,1.33438,
2011-09-24, 01:22:05,VALID,1001.24,VALID,0,VALID,92.8754,VALID,0.112286,VALID,24.15,VALID,302,VALID,0.985937,
2011-09-24, 01:23:05,VALID,1001.26,VALID,0,VALID,92.8601,VALID,0,VALID,24.1092,VALID,303,VALID,0.348047,
2011-09-24, 01:24:05,VALID,1001.23,VALID,0,VALID,92.8525,VALID,0,VALID,24.1092,VALID,258,VALID,0.339063,
2011-09-24, 01:25:05,VALID,1001.24,VALID,0,VALID,92.8601,VALID,0,VALID,24.1305,VALID,259,VALID,0.323828,
2011-09-24, 01:26:05,VALID,1001.22,VALID,0,VALID,92.8601,VALID,0.112286,VALID,24.0897,VALID,243,VALID,0.367578,
2011-09-24, 01:27:05,VALID,1001.26,VALID,0,VALID,92.8677,VALID,0,VALID,24.111,VALID,171,VALID,0.265234,
2011-09-24, 01:28:05,VALID,1001.26,VALID,0,VALID,92.883,VALID,0,VALID,24.0701,VALID,328,VALID,0.484375,
2011-09-24, 01:29:05,VALID,1001.21,VALID,0,VALID,92.8448,VALID,0,VALID,24.0915,VALID,284,VALID,1.00391,
2011-09-24, 01:30:05,VALID,1001.23,VALID,0,VALID,92.8372,VALID,0,VALID,24.0701,VALID,274,VALID,0.587891,
2011-09-24, 01:31:05,VALID,1001.19,VALID,0,VALID,92.7914,VALID,0,VALID,24.0915,VALID,274,VALID,0.452734,
2011-09-24, 01:32:05,VALID,1001.18,VALID,0,VALID,92.7991,VALID,0,VALID,24.0915,VALID,274,VALID,0.797656,
2011-09-24, 01:33:05,VALID,1001.13,VALID,0,VALID,92.7609,VALID,0,VALID,24.0897,VALID,296,VALID,1.0168,
2011-09-24, 01:34:05,VALID,1001.14,VALID,0,VALID,92.7304,VALID,0,VALID,24.0701,VALID,307,VALID,0.855078,
2011-09-24, 01:35:05,VALID,1001.1,VALID,0,VALID,92.7151,VALID,0,VALID,24.0915,VALID,307,VALID,0.4,
2011-09-24, 01:36:05,VALID,1001.11,VALID,0,VALID,92.7075,VALID,0,VALID,24.111,VALID,323,VALID,0.95,
2011-09-24, 01:37:05,VALID,1001.13,VALID,0,VALID,92.7075,VALID,0,VALID,24.111,VALID,323,VALID,0.564844,
2011-09-24, 01:38:05,VALID,1001.12,VALID,0,VALID,92.7457,VALID,0,VALID,24.0915,VALID,356,VALID,0.852344,
2011-09-24, 01:39:05,VALID,1001.13,VALID,0,VALID,92.7914,VALID,0,VALID,24.0701,VALID,356,VALID,0.731641,
2011-09-24, 01:40:05,VALID,1001.12,VALID,0,VALID,92.8143,VALID,0,VALID,24.0915,VALID,356,VALID,0.873047,
2011-09-24, 01:41:05,VALID,1001.16,VALID,0,VALID,92.8296,VALID,0,VALID,24.0506,VALID,356,VALID,0.621875,
2011-09-24, 01:42:05,VALID,1001.12,VALID,0,VALID,92.8601,VALID,0,VALID,24.0506,VALID,356,VALID,0.199219,
2011-09-24, 01:43:05,VALID,1001.16,VALID,0,VALID,92.8601,VALID,0,VALID,24.0915,VALID,356,VALID,0.538281,
2011-09-24, 01:44:05,VALID,1001.16,VALID,0,VALID,92.9059,VALID,0,VALID,24.0701,VALID,356,VALID,0.767969,
2011-09-24, 01:45:05,VALID,1001.12,VALID,0,VALID,92.9059,VALID,0,VALID,24.0506,VALID,356,VALID,0.5375,
2011-09-24, 01:46:05,VALID,1001.08,VALID,0,VALID,92.8983,VALID,0,VALID,24.0311,VALID,356,VALID,0.476172,
2011-09-24, 01:47:05,VALID,1001.1,VALID,0,VALID,92.8983,VALID,0,VALID,24.0506,VALID,356,VALID,0.617578,
2011-09-24, 01:48:05,VALID,1001.11,VALID,0,VALID,92.9211,VALID,0,VALID,24.0506,VALID,356,VALID,0.610937,
2011-09-24, 01:49:05,VALID,1001.07,VALID,0,VALID,92.9135,VALID,0,VALID,24.0525,VALID,356,VALID,0.742188,
2011-09-24, 01:50:05,VALID,1001.09,VALID,0,VALID,92.8983,VALID,0,VALID,24.0329,VALID,12,VALID,1.18125,
2011-09-24, 01:51:05,VALID,1001.06,VALID,0,VALID,92.8143,VALID,0,VALID,23.9939,VALID,19,VALID,0.96875,
2011-09-24, 01:52:05,VALID,1001.05,VALID,0,VALID,92.7228,VALID,0,VALID,23.9531,VALID,19,VALID,1.17734,
2011-09-24, 01:53:05,VALID,1001.04,VALID,0,VALID,92.6388,VALID,0,VALID,23.914,VALID,19,VALID,0.9875,
2011-09-24, 01:54:05,VALID,1001.07,VALID,0,VALID,92.6083,VALID,0,VALID,23.8963,VALID,19,VALID,0.912109,
2011-09-24, 01:55:05,VALID,1001.05,VALID,0,VALID,92.6007,VALID,0,VALID,23.8573,VALID,19,VALID,1.04805,
2011-09-24, 01:56:05,VALID,1001.04,VALID,0,VALID,92.6541,VALID,0,VALID,23.8573,VALID,19,VALID,1.04844,
2011-09-24, 01:57:05,VALID,1001.04,VALID,0,VALID,92.677,VALID,0,VALID,23.8786,VALID,19,VALID,0.957422,
2011-09-24, 01:58:05,VALID,1001.04,VALID,0,VALID,92.7304,VALID,0,VALID,23.8378,VALID,19,VALID,1.00937,
2011-09-24, 01:59:05,VALID,1001.02,VALID,0,VALID,92.7685,VALID,0,VALID,23.8378,VALID,19,VALID,0.923437,
2011-09-24, 02:00:05,VALID,1001.03,VALID,0,VALID,92.7914,VALID,0,VALID,23.8378,VALID,19,VALID,0.463281,
2011-09-24, 02:01:05,VALID,1001.01,VALID,0,VALID,92.8448,VALID,0,VALID,23.8573,VALID,19,VALID,0.650391,
2011-09-24, 02:02:05,VALID,1000.98,VALID,0,VALID,92.8754,VALID,0,VALID,23.8378,VALID,19,VALID,0.93125,
2011-09-24, 02:03:05,VALID,1000.95,VALID,0,VALID,92.8983,VALID,0,VALID,23.8378,VALID,19,VALID,0.839063,
2011-09-24, 02:04:05,VALID,1000.94,VALID,0,VALID,92.8906,VALID,0,VALID,23.8768,VALID,19,VALID,0.727734,
2011-09-24, 02:05:05,VALID,1000.93,VALID,0,VALID,92.9517,VALID,0,VALID,23.8768,VALID,19,VALID,0.683984,
2011-09-24, 02:06:05,VALID,1000.91,VALID,0,VALID,92.9898,VALID,0,VALID,23.8963,VALID,19,VALID,0.614453,
2011-09-24, 02:07:05,VALID,1000.91,VALID,0,VALID,93.0051,VALID,0,VALID,23.8768,VALID,19,VALID,0.664063,
2011-09-24, 02:08:05,VALID,1000.86,VALID,0,VALID,93.0432,VALID,0,VALID,23.8963,VALID,19,VALID,0.982813,
2011-09-24, 02:09:05,VALID,1000.87,VALID,0,VALID,93.0585,VALID,0,VALID,23.8963,VALID,19,VALID,0.911719,
2011-09-24, 02:10:05,VALID,1000.84,VALID,0,VALID,93.0661,VALID,0,VALID,23.8963,VALID,55,VALID,1.23477,
2011-09-24, 02:11:05,VALID,1000.85,VALID,0,VALID,93.0737,VALID,0,VALID,23.9159,VALID,88,VALID,1.38594,
2011-09-24, 02:12:05,VALID,1000.85,VALID,0,VALID,93.0661,VALID,0,VALID,23.9159,VALID,65,VALID,1.51875,
2011-09-24, 02:13:05,VALID,1000.82,VALID,0,VALID,93.0432,VALID,0,VALID,23.9354,VALID,56,VALID,1.26797,
2011-09-24, 02:14:05,VALID,1000.84,VALID,0,VALID,93.0585,VALID,0,VALID,23.9159,VALID,58,VALID,1.30117,
2011-09-24, 02:15:05,VALID,1000.84,VALID,0,VALID,93.0585,VALID,0,VALID,23.9159,VALID,56,VALID,1.40078,
2011-09-24, 02:16:05,VALID,1000.83,VALID,0,VALID,93.0585,VALID,0,VALID,23.8768,VALID,66,VALID,1.67344,
2011-09-24, 02:17:05,VALID,1000.85,VALID,0,VALID,93.0127,VALID,0,VALID,23.8573,VALID,58,VALID,1.40273,
2011-09-24, 02:18:05,VALID,1000.81,VALID,0,VALID,92.9822,VALID,0,VALID,23.8378,VALID,63,VALID,1.18867,
2011-09-24, 02:19:05,VALID,1000.82,VALID,0,VALID,92.9822,VALID,0,VALID,23.8183,VALID,63,VALID,1.38789,
2011-09-24, 02:20:05,VALID,1000.79,VALID,0,VALID,92.9364,VALID,0,VALID,23.8183,VALID,60,VALID,1.19609,
2011-09-24, 02:21:05,VALID,1000.78,VALID,0,VALID,92.8983,VALID,0,VALID,23.8183,VALID,60,VALID,1.0668,
2011-09-24, 02:22:05,VALID,1000.77,VALID,0,VALID,92.883,VALID,0,VALID,23.7988,VALID,60,VALID,1.08438,
2011-09-24, 02:23:05,VALID,1000.74,VALID,0,VALID,92.9211,VALID,0,VALID,23.8183,VALID,60,VALID,1.07344,
2011-09-24, 02:24:05,VALID,1000.73,VALID,0,VALID,92.8906,VALID,0,VALID,23.8396,VALID,60,VALID,0.816016,
2011-09-24, 02:25:05,VALID,1000.66,VALID,0,VALID,92.9135,VALID,0,VALID,23.7988,VALID,60,VALID,0.937109,
2011-09-24, 02:26:05,VALID,1000.67,VALID,0,VALID,92.9135,VALID,0,VALID,23.8183,VALID,60,VALID,1.27109,
2011-09-24, 02:27:05,VALID,1000.65,VALID,0,VALID,92.9517,VALID,0,VALID,23.8183,VALID,60,VALID,1.11133,
2011-09-24, 02:28:05,VALID,1000.59,VALID,0,VALID,92.9745,VALID,0,VALID,23.7988,VALID,52,VALID,1.43984,
2011-09-24, 02:29:05,VALID,1000.6,VALID,0,VALID,92.9898,VALID,0,VALID,23.8183,VALID,48,VALID,1.10117,
2011-09-24, 02:30:05,VALID,1000.56,VALID,0,VALID,93.0356,VALID,0,VALID,23.8378,VALID,48,VALID,1.18203,
2011-09-24, 02:31:05,VALID,1000.56,VALID,0,VALID,93.0737,VALID,0,VALID,23.8378,VALID,48,VALID,0.721484,
2011-09-24, 02:32:05,VALID,1000.58,VALID,0,VALID,93.1043,VALID,0,VALID,23.8378,VALID,56,VALID,0.803516,
2011-09-24, 02:33:05,VALID,1000.56,VALID,0,VALID,93.1271,VALID,0,VALID,23.8378,VALID,65,VALID,0.295703,
2011-09-24, 02:34:05,VALID,1000.55,VALID,0,VALID,93.1653,VALID,0,VALID,23.8378,VALID,65,VALID,0.420312,
2011-09-24, 02:35:05,VALID,1000.54,VALID,0,VALID,93.1958,VALID,0,VALID,23.8183,VALID,65,VALID,0.305078,
2011-09-24, 02:36:05,VALID,1000.53,VALID,0,VALID,93.2034,VALID,0,VALID,23.8183,VALID,65,VALID,0,
2011-09-24, 02:37:05,VALID,1000.49,VALID,0,VALID,93.2492,VALID,0,VALID,23.8378,VALID,65,VALID,0,
2011-09-24, 02:38:05,VALID,1000.48,VALID,0,VALID,93.2645,VALID,0,VALID,23.7988,VALID,65,VALID,0.447656,
2011-09-24, 02:39:05,VALID,1000.5,VALID,0,VALID,93.2874,VALID,0,VALID,23.8201,VALID,66,VALID,0.720312,
2011-09-24, 02:40:05,VALID,1000.46,VALID,0,VALID,93.2874,VALID,0,VALID,23.8006,VALID,66,VALID,0.624609,
2011-09-24, 02:41:05,VALID,1000.46,VALID,0,VALID,93.3103,VALID,0,VALID,23.7793,VALID,66,VALID,0.418359,
2011-09-24, 02:42:05,VALID,1000.46,VALID,0,VALID,93.3103,VALID,0,VALID,23.7793,VALID,66,VALID,0.45,
2011-09-24, 02:43:05,VALID,1000.46,VALID,0,VALID,93.3255,VALID,0,VALID,23.7793,VALID,66,VALID,0.263281,
2011-09-24, 02:44:05,VALID,1000.44,VALID,0,VALID,93.3331,VALID,0,VALID,23.7597,VALID,66,VALID,0,
2011-09-24, 02:45:05,VALID,1000.44,VALID,0,VALID,93.3484,VALID,0,VALID,23.7402,VALID,66,VALID,0,
2011-09-24, 02:46:05,VALID,1000.46,VALID,0,VALID,93.356,VALID,0,VALID,23.7402,VALID,66,VALID,0,
2011-09-24, 02:47:05,VALID,1000.4,VALID,0,VALID,93.3713,VALID,0,VALID,23.7402,VALID,66,VALID,0,
2011-09-24, 02:48:05,VALID,1000.42,VALID,0,VALID,93.3942,VALID,0,VALID,23.7207,VALID,66,VALID,0,
2011-09-24, 02:49:05,VALID,1000.4,VALID,0,VALID,93.4018,VALID,0,VALID,23.7207,VALID,66,VALID,0,
2011-09-24, 02:50:05,VALID,1000.4,VALID,0,VALID,93.4094,VALID,0,VALID,23.7207,VALID,66,VALID,0,
2011-09-24, 02:51:05,VALID,1000.37,VALID,0,VALID,93.4018,VALID,0,VALID,23.7225,VALID,66,VALID,0,
2011-09-24, 02:52:05,VALID,1000.37,VALID,0,VALID,93.4094,VALID,0,VALID,23.7012,VALID,66,VALID,0,
2011-09-24, 02:53:05,VALID,1000.35,VALID,0,VALID,93.4171,VALID,0,VALID,23.7225,VALID,66,VALID,0,
2011-09-24, 02:54:05,VALID,1000.34,VALID,0,VALID,93.44,VALID,0,VALID,23.7012,VALID,66,VALID,0,
2011-09-24, 02:55:05,VALID,1000.37,VALID,0,VALID,93.4171,VALID,0,VALID,23.7012,VALID,66,VALID,0,
2011-09-24, 02:56:05,VALID,1000.38,VALID,0,VALID,93.4247,VALID,0,VALID,23.7012,VALID,66,VALID,0,
2011-09-24, 02:57:05,VALID,1000.38,VALID,0,VALID,93.4247,VALID,0,VALID,23.7207,VALID,66,VALID,0,
2011-09-24, 02:58:05,VALID,1000.36,VALID,0,VALID,93.44,VALID,0,VALID,23.7207,VALID,66,VALID,0,
2011-09-24, 02:59:05,VALID,1000.36,VALID,0,VALID,93.4705,VALID,0,VALID,23.742,VALID,66,VALID,0,
2011-09-24, 03:00:05,VALID,1000.36,VALID,0,VALID,93.4552,VALID,0,VALID,23.7207,VALID,66,VALID,0,
2011-09-24, 03:01:05,VALID,1000.34,VALID,0,VALID,93.4476,VALID,0,VALID,23.7402,VALID,66,VALID,0,
2011-09-24, 03:02:05,VALID,1000.37,VALID,0,VALID,93.4628,VALID,0,VALID,23.7402,VALID,66,VALID,0,
2011-09-24, 03:03:05,VALID,1000.33,VALID,0,VALID,93.4705,VALID,0,VALID,23.7402,VALID,66,VALID,0,
2011-09-24, 03:04:05,VALID,1000.36,VALID,0,VALID,93.4857,VALID,0,VALID,23.7597,VALID,66,VALID,0,
2011-09-24, 03:05:05,VALID,1000.3,VALID,0,VALID,93.501,VALID,0,VALID,23.7597,VALID,66,VALID,0,
2011-09-24, 03:06:05,VALID,1000.32,VALID,0,VALID,93.5086,VALID,0,VALID,23.7597,VALID,66,VALID,0,
2011-09-24, 03:07:05,VALID,1000.31,VALID,0,VALID,93.4781,VALID,0,VALID,23.7793,VALID,66,VALID,0,
2011-09-24, 03:08:05,VALID,1000.29,VALID,0,VALID,93.4934,VALID,0,VALID,23.7988,VALID,66,VALID,0.686328,
2011-09-24, 03:09:05,VALID,1000.27,VALID,0,VALID,93.4705,VALID,0,VALID,23.8183,VALID,66,VALID,0.727734,
2011-09-24, 03:10:05,VALID,1000.33,VALID,0,VALID,93.4857,VALID,0,VALID,23.8378,VALID,66,VALID,0.773047,
2011-09-24, 03:11:05,VALID,1000.31,VALID,0,VALID,93.4781,VALID,0,VALID,23.8378,VALID,66,VALID,0.6125,
2011-09-24, 03:12:05,VALID,1000.28,VALID,0,VALID,93.4628,VALID,0,VALID,23.8768,VALID,93,VALID,0.887891,
2011-09-24, 03:13:05,VALID,1000.28,VALID,0,VALID,93.4628,VALID,0,VALID,23.8768,VALID,124,VALID,0.926172,
2011-09-24, 03:14:05,VALID,1000.26,VALID,0,VALID,93.4857,VALID,0,VALID,23.8963,VALID,124,VALID,0.760547,
2011-09-24, 03:15:05,VALID,1000.26,VALID,0,VALID,93.4552,VALID,0,VALID,23.8963,VALID,124,VALID,0.802734,
2011-09-24, 03:16:05,VALID,1000.25,VALID,0,VALID,93.44,VALID,0,VALID,23.9159,VALID,124,VALID,0.944922,
2011-09-24, 03:17:05,VALID,1000.22,VALID,0,VALID,93.4628,VALID,0,VALID,23.9159,VALID,124,VALID,0.785547,
2011-09-24, 03:18:05,VALID,1000.22,VALID,0,VALID,93.44,VALID,0,VALID,23.914,VALID,124,VALID,0.840234,
2011-09-24, 03:19:05,VALID,1000.2,VALID,0,VALID,93.4552,VALID,0,VALID,23.9549,VALID,124,VALID,0.683203,
2011-09-24, 03:20:05,VALID,1000.2,VALID,0,VALID,93.4781,VALID,0,VALID,23.9549,VALID,124,VALID,0.715625,
2011-09-24, 03:21:05,VALID,1000.16,VALID,0,VALID,93.4857,VALID,0,VALID,23.9549,VALID,124,VALID,0.691797,
2011-09-24, 03:22:05,VALID,1000.21,VALID,0,VALID,93.4781,VALID,0,VALID,23.9939,VALID,124,VALID,0.98125,
2011-09-24, 03:23:05,VALID,1000.17,VALID,0,VALID,93.4934,VALID,0,VALID,23.9939,VALID,124,VALID,0.974219,
2011-09-24, 03:24:05,VALID,1000.18,VALID,0,VALID,93.4934,VALID,0,VALID,23.9939,VALID,148,VALID,1.36758,
2011-09-24, 03:25:05,VALID,1000.14,VALID,0,VALID,93.501,VALID,0,VALID,24.0153,VALID,148,VALID,1.3375,
2011-09-24, 03:26:05,VALID,1000.17,VALID,0,VALID,93.5086,VALID,0,VALID,24.0134,VALID,148,VALID,1.0168,
2011-09-24, 03:27:05,VALID,1000.16,VALID,0,VALID,93.4934,VALID,0,VALID,24.0348,VALID,148,VALID,1.125,
2011-09-24, 03:28:05,VALID,1000.18,VALID,0,VALID,93.4705,VALID,0,VALID,24.0329,VALID,148,VALID,1.38359,
2011-09-24, 03:29:05,VALID,1000.18,VALID,0,VALID,93.4552,VALID,0,VALID,24.0329,VALID,148,VALID,1.30898,
2011-09-24, 03:30:05,VALID,1000.18,VALID,0,VALID,93.44,VALID,0,VALID,24.072,VALID,148,VALID,0.885938,
2011-09-24, 03:31:05,VALID,1000.21,VALID,0,VALID,93.4323,VALID,0,VALID,24.072,VALID,148,VALID,1.30703,
2011-09-24, 03:32:05,VALID,1000.16,VALID,0,VALID,93.4094,VALID,0,VALID,24.072,VALID,148,VALID,1.09258,
2011-09-24, 03:33:05,VALID,1000.18,VALID,0,VALID,93.3789,VALID,0,VALID,24.072,VALID,148,VALID,1.3332,
2011-09-24, 03:34:05,VALID,1000.15,VALID,0,VALID,93.3713,VALID,0,VALID,24.0915,VALID,148,VALID,1.15156,
2011-09-24, 03:35:05,VALID,1000.16,VALID,0,VALID,93.356,VALID,0,VALID,24.072,VALID,140,VALID,1.52188,
2011-09-24, 03:36:04,VALID,1000.15,VALID,0,VALID,93.3179,VALID,0,VALID,24.0915,VALID,135,VALID,1.34453,
2011-09-24, 03:37:04,VALID,1000.15,VALID,0,VALID,93.2492,VALID,0,VALID,24.0506,VALID,135,VALID,1.45156,
2011-09-24, 03:38:04,VALID,1000.15,VALID,0,VALID,93.2034,VALID,0,VALID,24.0915,VALID,135,VALID,1.14102,
2011-09-24, 03:39:04,VALID,1000.15,VALID,0,VALID,93.1348,VALID,0,VALID,24.1128,VALID,134,VALID,1.15313,
2011-09-24, 03:40:04,VALID,1000.16,VALID,0,VALID,93.1195,VALID,0,VALID,24.0915,VALID,135,VALID,1.2457,
2011-09-24, 03:41:04,VALID,1000.15,VALID,0,VALID,93.089,VALID,0,VALID,24.111,VALID,138,VALID,1.13945,
2011-09-24, 03:42:04,VALID,1000.16,VALID,0,VALID,93.0432,VALID,0,VALID,24.111,VALID,141,VALID,1.1457,
2011-09-24, 03:43:04,VALID,1000.13,VALID,0,VALID,93.0203,VALID,0,VALID,24.111,VALID,141,VALID,0.832422,
2011-09-24, 03:44:04,VALID,1000.1,VALID,0,VALID,93.0203,VALID,0,VALID,24.1305,VALID,141,VALID,1.02422,
2011-09-24, 03:45:04,VALID,1000.11,VALID,0,VALID,93.0203,VALID,0,VALID,24.111,VALID,141,VALID,1.08086,
2011-09-24, 03:46:04,VALID,1000.1,VALID,0,VALID,93.0356,VALID,0,VALID,24.1305,VALID,141,VALID,0.814844,
2011-09-24, 03:47:04,VALID,1000.1,VALID,0,VALID,93.0432,VALID,0,VALID,24.1519,VALID,141,VALID,1.28242,